Tracking 19827 objects as of 22-Aug-2019
HD Live streaming from Space Station
objects crossing your sky now

HELIOS 1A

Track HELIOS 1A now!
10-day predictions
HELIOS 1A is classified as:


NORAD ID: 23605
Int'l Code: 1995-033A
Perigee: 592.4 km
Apogee: 610.1 km
Inclination: 98.2 °
Period: 96.6 minutes
Semi major axis: 6972 km
RCS: Unknown
Launch date: July 7, 1995
Source: France (FR)
Launch site: FRENCH GUIANA (FRGUI)

Optical reconnaissance; cannot see through clouds or at night.
aabbcc
Your satellite tracking list
Your tracking list is empty




NASA's NSSDC Master Catalog

Two Line Element Set (TLE):
1 23605U 95033A   19230.90509202 0.00000200  00000-0  20113-4 0    04
2 23605  98.1733 319.0976 0012662 359.6297   0.3702 14.91232006    02
Source of the keplerian elements: McCants